Home > Weather > Stockholm > Past weeks

Flag for Sweden Weather for the Past 2 Weeks in Stockholm, Sweden

Now
45 °F

Passing clouds.


Feels Like: 45 °F
Forecast: 43 / 64 °F
Wind: 2 mph from Southeast

Location: Stockholm Bromma Airport

Current Time: May 4, 2016 at 12:23:59 AM

Latest Report: May 3, 2016 at 11:50 PM


Visibility: N/A

Pressure: 30.09 "Hg

Humidity: 71%

Dew Point: 36 °F

Location of StockholmLocation

Historic Weather in Stockholm — Graph

°F

Stockholm Temperature Yesterday

Maximum temperature yesterday: 64 °F (at 12:50 PM)
Minimum temperature yesterday: 39 °F (at 1:50 AM)
Average temperature yesterday: 54 °F

High & Low Weather Summary for the Past Weeks

 TemperatureHumidityPressure
High64 °F (May 3, 12:50 PM)100% (Apr 22, 10:50 PM)30.33 "Hg (Apr 22, 10:50 PM)
Low28 °F (Apr 26, 3:20 AM)15% (May 2, 4:20 PM)29.47 "Hg (Apr 19, 2:50 AM)
Average43 °F69%29.91 "Hg
* Reported Apr 18 10:20 PM — May 3 10:50 PM, Stockholm, Weather by CustomWeather, © 2016

Note: Actual official high and low records may vary slightly from our data, if they occured in-between our weather recording intervals... More about our weather records

Advertising

Stockholm Weather History for the Previous 24 Hours

Scroll right to see more
 ConditionsComfort  
Time TempWeatherWind HumidityBarometerVisibility
10:50 PM
Tue, May 3
48 °FCool.3 mph62%30.09 "HgN/A
10:20 PM50 °FCool.6 mph62%30.07 "HgN/A
9:50 PM50 °FClear.6 mph62%30.07 "Hg10 mi
9:20 PM52 °FSunny.7 mph58%30.07 "Hg10 mi
8:50 PM54 °FSunny.7 mph54%30.07 "Hg10 mi
8:20 PM57 °FSunny.8 mph44%30.04 "Hg10 mi
7:50 PM59 °FSunny.8 mph42%30.04 "Hg10 mi
7:20 PM61 °FSunny.7 mph36%30.04 "Hg10 mi
6:50 PM61 °FSunny.10 mph36%30.04 "Hg10 mi
6:20 PM63 °FSunny.9 mph34%30.04 "Hg10 mi
5:50 PM64 °FPassing clouds.10 mph32%30.04 "HgN/A
5:20 PM64 °FPassing clouds.9 mph32%30.04 "HgN/A
4:50 PM64 °FSunny.10 mph32%30.04 "Hg10 mi
4:20 PM64 °FPassing clouds.9 mph30%30.04 "HgN/A
3:50 PM64 °FPassing clouds.9 mph30%30.04 "HgN/A
3:20 PM64 °FPassing clouds.10 mph28%30.04 "HgN/A
2:50 PM64 °FPassing clouds.10 mph30%30.04 "HgN/A
2:20 PM64 °FPassing clouds.9 mph32%30.04 "HgN/A
1:20 PM64 °FPassing clouds.10 mph34%30.07 "HgN/A
12:50 PM64 °FPassing clouds.7 mph34%30.07 "HgN/A
12:20 PM63 °FPassing clouds.8 mph37%30.07 "HgN/A
11:50 AM63 °FPassing clouds.7 mph34%30.07 "HgN/A
11:20 AM61 °FPassing clouds.6 mph34%30.07 "HgN/A
10:50 AM61 °FPassing clouds.7 mph31%30.07 "HgN/A
10:20 AM59 °FPassing clouds.6 mph39%30.07 "HgN/A
9:50 AM59 °FSunny.2 mph45%30.07 "Hg10 mi
9:20 AM55 °FSunny.3 mph55%30.07 "Hg10 mi
8:50 AM54 °FPassing clouds.3 mph58%30.07 "HgN/A
8:20 AM52 °FPassing clouds.3 mph62%30.07 "HgN/A
7:20 AM46 °FPassing clouds.5 mph82%30.07 "HgN/A
6:50 AM46 °FSunny.6 mph76%30.07 "Hg10 mi
6:20 AM45 °FSunny.3 mph81%30.07 "Hg10 mi
5:50 AM45 °FSunny.3 mph76%30.07 "Hg10 mi
5:20 AM43 °FFog.6 mph81%30.07 "Hg4 mi
4:50 AM43 °FFog.3 mph76%30.09 "HgN/A
4:20 AM43 °FFog.3 mph76%30.09 "HgN/A
3:20 AM43 °FQuite cool.5 mph76%30.09 "HgN/A
2:20 AM41 °FQuite cool.3 mph76%30.09 "HgN/A
1:50 AM39 °FChilly.2 mph81%30.09 "HgN/A
1:20 AM41 °FQuite cool.3 mph70%30.12 "HgN/A
12:50 AM41 °FQuite cool.3 mph70%30.12 "HgN/A
12:20 AM43 °FQuite cool.2 mph66%30.12 "HgN/A
Weather by CustomWeather, © 2016

See weather overviewHow to use our weather pages